{"data":{"norad_id":59706,"intl_designator":"2024-087B","name":"ZHIHUI TIANWANG-1 01B","alt_names":[],"object_type":"PAYLOAD","status":"ACTIVE","operator":null,"country":"PRC","launch_date":"2024-05-09","launch_site_code":"XICLF","launch_vehicle":null,"mission":null,"orbit_class":"UNKNOWN","rcs_meters":null,"size_class":null,"mass_kg":null,"dimensions":null,"purposes":[],"wikipedia_slug":null,"has_3d_model":false,"image_url":null,"decayed_at":null,"tle_current":{"epoch":"2026-05-24T04:49:17.023872Z","epoch_age_seconds":144210,"freshness":"FRESH","line1":"1 59706U 24087B   26144.20089148  .00000063  00000+0  00000+0 0  9994","line2":"2 59706  53.1256 171.5679 0025948 206.7317 153.1882  2.00563279 14479","mean_motion":2.00563279,"eccentricity":0.0025948,"inclination_deg":53.1256,"raan_deg":171.5679,"arg_perigee_deg":206.7317,"mean_anomaly_deg":153.1882,"bstar":0,"rev_number":1447,"period_min":717.97789065864,"perigee_km":20113.32064547,"apogee_km":20251.158375408,"semimajor_km":26560.376510439,"source":"CELESTRAK","updated_at":"2026-05-25T13:38:01.591211Z"}}}